• Em Portugal
  • Lista de países
  • Para 7 dias
  • Temperatura da água
  • Mapas de satélite
  • Mapa do tempo
  • Widgets de tempo
  • user-avatar
    Iniciar Sessão

    Previsão horária em Lalitpur

    Hoje, 20 Outubro, Sexta-feira

    Tempo Temperatura Precipitação Vento Pressão Humidade
    00:00 +20°C° 0 mm 1 m/s 652 mmHg 76%
    01:00 +19°C° 0 mm 1 m/s 651 mmHg 74%
    02:00 +19°C° 0 mm 1 m/s 651 mmHg 73%
    03:00 +19°C° 0 mm 1 m/s 651 mmHg 71%
    04:00 +18°C° 0 mm 2 m/s 651 mmHg 69%
    05:00 +18°C° 0 mm 2 m/s 651 mmHg 67%
    06:00 +19°C° 0 mm 1 m/s 650 mmHg 64%
    07:00 +21°C° 0 mm 1 m/s 651 mmHg 59%
    08:00 +24°C° 0 mm 1 m/s 652 mmHg 54%
    09:00 +26°C° 0 mm 1 m/s 653 mmHg 48%
    10:00 +27°C° 0 mm 1 m/s 653 mmHg 46%
    11:00 +28°C° 0 mm 2 m/s 653 mmHg 44%
    12:00 +29°C° 0 mm 2 m/s 653 mmHg 40%
    13:00 +29°C° 0 mm 3 m/s 652 mmHg 43%
    14:00 +28°C° 0 mm 3 m/s 651 mmHg 46%
    15:00 +28°C° 0 mm 3 m/s 651 mmHg 49%
    16:00 +25°C° 0 mm 2 m/s 650 mmHg 61%
    17:00 +23°C° 0 mm 1 m/s 650 mmHg 72%
    18:00 +21°C° 0 mm 1 m/s 649 mmHg 83%
    19:00 +20°C° 0 mm 1 m/s 650 mmHg 83%
    20:00 +20°C° 0 mm 1 m/s 650 mmHg 82%
    21:00 +19°C° 0 mm 1 m/s 650 mmHg 82%
    22:00 +19°C° 0 mm 1 m/s 650 mmHg 79%
    23:00 +19°C° 0 mm 1 m/s 650 mmHg 77%

    Amanhã, 21 Outubro, Sábado

    Tempo Temperatura Precipitação Vento Pressão Humidade
    00:00 +19°C° 0 mm 1 m/s 650 mmHg 74%
    01:00 +19°C° 0 mm 1 m/s 649 mmHg 72%
    02:00 +19°C° 0 mm 1 m/s 649 mmHg 70%
    03:00 +18°C° 0 mm 1 m/s 648 mmHg 67%
    04:00 +18°C° 0 mm 1 m/s 648 mmHg 66%
    05:00 +18°C° 0 mm 1 m/s 648 mmHg 65%
    06:00 +18°C° 0 mm 1 m/s 648 mmHg 64%
    07:00 +20°C° 0 mm 1 m/s 649 mmHg 60%
    08:00 +22°C° 0 mm 1 m/s 650 mmHg 56%
    09:00 +24°C° 0 mm 1 m/s 650 mmHg 53%
    10:00 +25°C° 0 mm 2 m/s 650 mmHg 51%
    11:00 +26°C° 0 mm 2 m/s 650 mmHg 48%
    12:00 +27°C° 0 mm 3 m/s 650 mmHg 46%
    13:00 +27°C° 0,1 mm 3 m/s 649 mmHg 52%
    14:00 +26°C° 0,1 mm 3 m/s 649 mmHg 58%
    15:00 +25°C° 0,1 mm 3 m/s 648 mmHg 64%
    16:00 +24°C° 0,4 mm 2 m/s 648 mmHg 73%
    17:00 +21°C° 0,4 mm 2 m/s 647 mmHg 83%
    18:00 +20°C° 0,4 mm 1 m/s 647 mmHg 93%
    19:00 +20°C° 0,2 mm 1 m/s 647 mmHg 92%
    20:00 +20°C° 0,2 mm 1 m/s 647 mmHg 91%
    21:00 +19°C° 0,2 mm 1 m/s 648 mmHg 90%
    22:00 +19°C° 0,3 mm 1 m/s 648 mmHg 90%
    23:00 +19°C° 0,3 mm 1 m/s 648 mmHg 89%

    Depois de amanhã, 22 Outubro, Domingo

    Tempo Temperatura Precipitação Vento Pressão Humidade
    00:00 +19°C° 0,3 mm 1 m/s 648 mmHg 88%
    01:00 +19°C° 0,1 mm 1 m/s 647 mmHg 86%
    02:00 +18°C° 0,1 mm 1 m/s 647 mmHg 85%
    03:00 +18°C° 0,1 mm 1 m/s 647 mmHg 84%
    04:00 +18°C° 0 mm 1 m/s 647 mmHg 82%
    05:00 +18°C° 0 mm 1 m/s 647 mmHg 80%
    06:00 +18°C° 0 mm 1 m/s 647 mmHg 78%
    07:00 +19°C° 0 mm 1 m/s 648 mmHg 75%
    08:00 +21°C° 0 mm 1 m/s 649 mmHg 72%
    09:00 +23°C° 0 mm 1 m/s 650 mmHg 69%
    10:00 +23°C° 0 mm 2 m/s 650 mmHg 67%
    11:00 +24°C° 0 mm 2 m/s 650 mmHg 64%
    12:00 +25°C° 0 mm 2 m/s 650 mmHg 62%
    13:00 +25°C° 0,2 mm 2 m/s 649 mmHg 65%
    14:00 +24°C° 0,2 mm 2 m/s 648 mmHg 68%
    15:00 +24°C° 0,2 mm 2 m/s 648 mmHg 71%
    16:00 +23°C° 0,3 mm 2 m/s 648 mmHg 77%
    17:00 +21°C° 0,3 mm 1 m/s 648 mmHg 84%
    18:00 +20°C° 0,3 mm 1 m/s 647 mmHg 90%
    19:00 +20°C° 0,3 mm 1 m/s 648 mmHg 90%
    20:00 +20°C° 0,3 mm 1 m/s 649 mmHg 90%
    21:00 +19°C° 0,3 mm 1 m/s 649 mmHg 89%
    22:00 +19°C° 0,2 mm 1 m/s 649 mmHg 88%
    23:00 +19°C° 0,2 mm 1 m/s 650 mmHg 86%

    23 Outubro, Segunda-feira

    Tempo Temperatura Precipitação Vento Pressão Humidade
    00:00 +19°C° 0,2 mm 1 m/s 650 mmHg 85%
    01:00 +18°C° 0,2 mm 1 m/s 649 mmHg 84%
    02:00 +18°C° 0,2 mm 1 m/s 649 mmHg 83%
    03:00 +16°C° 0,2 mm 1 m/s 649 mmHg 83%
    04:00 +16°C° 0,3 mm 1 m/s 649 mmHg 82%
    05:00 +16°C° 0,3 mm 1 m/s 649 mmHg 80%
    06:00 +16°C° 0,3 mm 1 m/s 649 mmHg 79%
    07:00 +19°C° 0,2 mm 1 m/s 650 mmHg 76%
    08:00 +20°C° 0,2 mm 1 m/s 651 mmHg 72%
    09:00 +22°C° 0,2 mm 1 m/s 652 mmHg 69%
    10:00 +23°C° 0,4 mm 2 m/s 652 mmHg 67%
    11:00 +23°C° 0,4 mm 2 m/s 652 mmHg 65%
    12:00 +24°C° 0,4 mm 2 m/s 651 mmHg 63%
    13:00 +24°C° 0,7 mm 2 m/s 651 mmHg 64%
    14:00 +24°C° 0,7 mm 2 m/s 650 mmHg 65%
    15:00 +24°C° 0,7 mm 2 m/s 650 mmHg 65%
    16:00 +21°C° 0,7 mm 2 m/s 649 mmHg 73%
    17:00 +20°C° 0,7 mm 1 m/s 649 mmHg 82%
    18:00 +18°C° 0,7 mm 1 m/s 649 mmHg 90%
    19:00 +18°C° 1 mm 1 m/s 649 mmHg 88%
    20:00 +18°C° 1 mm 1 m/s 650 mmHg 87%
    21:00 +16°C° 1 mm 1 m/s 650 mmHg 86%
    22:00 +16°C° 0,6 mm 1 m/s 650 mmHg 83%
    23:00 +16°C° 0,6 mm 1 m/s 650 mmHg 81%

    24 Outubro, Terça-feira

    Tempo Temperatura Precipitação Vento Pressão Humidade
    00:00 +16°C° 0,6 mm 1 m/s 650 mmHg 79%
    01:00 +16°C° 0,4 mm 1 m/s 650 mmHg 77%
    02:00 +15°C° 0,4 mm 1 m/s 650 mmHg 74%
    03:00 +15°C° 0,4 mm 2 m/s 649 mmHg 72%
    04:00 +15°C° 0,1 mm 2 m/s 650 mmHg 70%
    05:00 +14°C° 0,1 mm 2 m/s 650 mmHg 67%
    06:00 +14°C° 0,1 mm 2 m/s 650 mmHg 64%
    07:00 +16°C° 0 mm 1 m/s 651 mmHg 59%
    08:00 +20°C° 0 mm 1 m/s 652 mmHg 53%
    09:00 +22°C° 0 mm 1 m/s 653 mmHg 48%
    10:00 +23°C° 0 mm 1 m/s 653 mmHg 46%
    11:00 +24°C° 0 mm 2 m/s 653 mmHg 44%
    12:00 +25°C° 0 mm 2 m/s 653 mmHg 42%
    13:00 +24°C° 0,6 mm 2 m/s 652 mmHg 44%
    14:00 +24°C° 0,6 mm 2 m/s 652 mmHg 47%
    15:00 +24°C° 0,6 mm 2 m/s 651 mmHg 50%
    16:00 +20°C° 0,7 mm 2 m/s 651 mmHg 60%
    17:00 +19°C° 0,7 mm 1 m/s 650 mmHg 69%
    18:00 +16°C° 0,7 mm 1 m/s 650 mmHg 79%
    19:00 +16°C° 0,3 mm 1 m/s 650 mmHg 76%
    20:00 +15°C° 0,3 mm 1 m/s 651 mmHg 74%
    21:00 +15°C° 0,3 mm 2 m/s 651 mmHg 72%
    22:00 +15°C° 0,2 mm 2 m/s 651 mmHg 69%
    23:00 +14°C° 0,2 mm 2 m/s 651 mmHg 66%

    25 Outubro, Quarta-feira

    Tempo Temperatura Precipitação Vento Pressão Humidade
    00:00 +14°C° 0,2 mm 2 m/s 651 mmHg 63%
    01:00 +14°C° 0 mm 2 m/s 651 mmHg 60%
    02:00 +14°C° 0 mm 2 m/s 651 mmHg 57%
    03:00 +14°C° 0 mm 2 m/s 651 mmHg 54%
    04:00 +14°C° 0 mm 2 m/s 651 mmHg 52%
    05:00 +13°C° 0 mm 2 m/s 651 mmHg 50%
    06:00 +13°C° 0 mm 2 m/s 652 mmHg 48%
    07:00 +16°C° 0 mm 2 m/s 653 mmHg 44%
    08:00 +19°C° 0 mm 1 m/s 654 mmHg 41%
    09:00 +21°C° 0 mm 1 m/s 655 mmHg 37%
    10:00 +22°C° 0 mm 1 m/s 655 mmHg 38%
    11:00 +23°C° 0 mm 2 m/s 655 mmHg 39%
    12:00 +24°C° 0 mm 2 m/s 655 mmHg 40%
    13:00 +24°C° 0,2 mm 2 m/s 654 mmHg 44%
    14:00 +24°C° 0,2 mm 2 m/s 653 mmHg 49%
    15:00 +23°C° 0,2 mm 2 m/s 652 mmHg 53%
    16:00 +21°C° 0,1 mm 1 m/s 652 mmHg 61%
    17:00 +19°C° 0,1 mm 1 m/s 652 mmHg 69%
    18:00 +15°C° 0,1 mm 0 m/s 651 mmHg 77%
    19:00 +16°C° 0 mm 1 m/s 651 mmHg 76%
    20:00 +15°C° 0 mm 1 m/s 652 mmHg 76%
    21:00 +15°C° 0 mm 1 m/s 652 mmHg 75%
    22:00 +15°C° 0 mm 1 m/s 652 mmHg 74%
    23:00 +15°C° 0 mm 1 m/s 652 mmHg 73%
    Mostrar mais